Regional Weather Roundup
Issued by NWS

Home | Current Version | Previous Version | Graphics & Text | Print | Product List | Glossary On
Versions: 1 2 3 4 5 6 7 8 9 10 11 12 13 14 15 16 17 18 19 20 21 22 23 24 25 26 27 28 29 30 31 32 33 34 35 36 37 38 39 40 41 42 43 44 45 46 47 48 49 50
000
ASUS43 KMPX 251201
RWRMN
WEATHER ROUNDUP FOR MINNESOTA
NATIONAL WEATHER SERVICE TWIN CITIES/CHANHASSEN MN
700 AM CDT WED APR 25 2018


NOTE: "FAIR" INDICATES FEW OR NO CLOUDS BELOW 12,000 FEET WITH NO
SIGNIFICANT WEATHER AND/OR OBSTRUCTIONS TO VISIBILITY. N/A MEANS
CURRENT SKY AND/OR WEATHER CONDITIONS ARE NOT AVAILABLE.

MNZ060>063-068>070-251300-
   Twin Cities Metro

CITY           SKY/WX    TMP DP  RH WIND       PRES   REMARKS
TWIN CITIES    FAIR      36  25  64 N7        30.26S
6HR MIN TEMP:  35; 6HR MAX TEMP:  46;

ST PAUL        FAIR      35  25  66 CALM      30.28R
CRYSTAL        FAIR      34  23  64 N6        30.26R WCI  29
BLAINE         CLEAR     32  27  80 N6        30.27R WCI  26
LAKEVILLE      FAIR      30  25  80 NW5       30.25S WCI  25
EDEN PRAIRIE   FAIR      35  24  64 N7        30.25S WCI  29
6HR MIN TEMP:  34; 6HR MAX TEMP:  46;

SOUTH ST PAUL  FAIR      36  25  64 N6        30.26R
LAKE ELMO      FAIR      34  27  75 N6        30.27R WCI  29
$$
MNZ001>005-007-008-013>017-022>024-027-028-251300-
   Northwest Minnesota

CITY           SKY/WX    TMP DP  RH WIND       PRES   REMARKS
BEMIDJI        FAIR      23  19  86 SE3       30.24S
HALLOCK        FAIR      36  28  75 S14       30.14F
ROSEAU         FAIR      34  27  75 S10       30.17F WCI  26
WARROAD        FAIR      34  27  75 S7        30.17F WCI  28
CROOKSTON      FAIR      30  28  93 S7        30.23S WCI  23
FOSSTON        FAIR      27  21  80 S5        30.23F WCI  21
DETROIT LAKES  FAIR      30  27  86 CALM      30.26F
MOORHEAD       FAIR      36  27  69 S8        30.27F
PARK RAPIDS    FAIR      26  21  81 CALM      30.24F
MAHNOMEN       FAIR      28  24  84 S7        30.24S WCI  21
$$
MNZ006-009>011-018-025>026-251300-
   North Central Minnesota

CITY           SKY/WX    TMP DP  RH WIND       PRES   REMARKS
BAUDETTE       FAIR      32  23  69 S9        30.19F WCI  24
FLAG ISLAND    FAIR      28  23  80 S10       30.15F WCI  19
INTL FALLS     FAIR      25  22  88 S3        30.21F
6HR MIN TEMP:  20; 6HR MAX TEMP:  25;

WASKISH        FAIR      27  23  86 CALM      30.22S
BIG FORK       FAIR      25  21  86 CALM      30.24S
LONGVILLE      FAIR      21  21 100 CALM      30.25F
GRAND RAPIDS   FAIR      24  23  96 CALM      30.27S
CRANE LAKE     FAIR      19  19 100 CALM      30.26R
ORR            FAIR      25  19  80 CALM      30.22R
COOK           FAIR      23  21  93 CALM      30.24S
WALKER         FAIR      26  20  80 CALM      30.25S
$$
MNZ012-019>021-037-251300-
   Northeast Minnesota

CITY           SKY/WX    TMP DP  RH WIND       PRES   REMARKS
DULUTH         FAIR      30  22  72 N3        30.24S
6HR MIN TEMP:  26; 6HR MAX TEMP:  33;

ELY            FAIR      25  21  86 CALM      30.23F
HIBBING        FAIR      22  20  92 CALM      30.24S
EVELETH        FAIR      23  21  93 CALM      30.25S
DULUTH HARBOR  FAIR      32  27  80 CALM      30.28S
TWO HARBORS    FAIR      34  27  75 CALM      30.23S
SILVER BAY     FAIR      27  23  86 CALM      30.23S
GRAND MARAIS     N/A     35  22  58 CALM      30.25S
G MARAIS ARPRT FAIR      27  18  69 CALM      30.21S
$$
MNZ029>031-032-039>041-046>048-054>057-064-251300-
   West Central Minnesota

CITY           SKY/WX    TMP DP  RH WIND       PRES   REMARKS
FERGUS FALLS   FAIR      30  25  80 CALM      30.28S
WHEATON        CLEAR     30  27  86 CALM      30.31S
MORRIS         CLEAR     30  28  93 CALM      30.28S
ALEXANDRIA     FAIR      29  22  75 CALM      30.27F
ELBOW LAKE     FAIR      28  26  89 SW3       30.29S
WADENA         FAIR      27  23  86 CALM      30.26S
GLENWOOD       FAIR      28  25  86 CALM      30.28S
APPLETON       CLEAR     27  27 100 CALM      30.29S
BENSON         CLEAR     25  25 100 CALM      30.30S
ORTONVILLE     CLEAR     28  27  93 CALM      30.29S
WILLMAR        FAIR      30  27  86 CALM      30.30S
$$
MNZ033>034-036-042>043-049>051-058-059-251300-
   Central Minnesota

CITY           SKY/WX    TMP DP  RH WIND       PRES   REMARKS
ST CLOUD       FAIR      28  24  85 NW3       30.27S
6HR MIN TEMP:  27; 6HR MAX TEMP:  38;

SAUK CENTRE    FAIR      27  24  87 CALM      30.28S
PAYNESVILLE    FAIR      27  27  99 CALM      30.28F
AITKIN         FAIR      21  19  93 CALM      30.25S
PINE RIVER     FAIR      21  19  93 CALM      30.28F
BRAINERD       FAIR      25  20  81 S3        30.26S
STAPLES        FAIR      23  21  93 CALM      30.27R
LONG PRAIRIE   FAIR      27  23  86 CALM      30.28S
LITTLE FALLS   FAIR      27  21  80 CALM      30.28S
LITCHFIELD     FAIR      32  27  80 CALM      30.28S
BUFFALO        FAIR      33  24  72 N5        30.28S WCI  28
MAPLE LAKE     FAIR      32  27  82 CALM      30.28S
HUTCHINSON     FAIR      33  28  84 N5        30.28S WCI  28
$$
MNZ037-044-045-052-053-251300-
   East Central Minnesota

CITY           SKY/WX    TMP DP  RH WIND       PRES   REMARKS
PRINCETON      FAIR      28  25  86 CALM      30.28S
MORA           FAIR      27  23  86 CALM      30.28F
CAMBRIDGE      FAIR      30  21  69 CALM      30.28S
RUSH CITY      FAIR      30  24  76 N3        30.27S
MOOSE LAKE     FAIR      28  23  80 CALM      30.24F
HINCKLEY       FAIR      30  25  80 CALM      30.27R
CLOQUET        FAIR      27  21  80 NW3       30.25S
MCGREGOR       FAIR      25  23  93 CALM      30.27S
$$
MNZ071>073-080-081-089-090-097-098-251300-
   Southwest Minnesota

CITY           SKY/WX    TMP DP  RH WIND       PRES   REMARKS
MONTEVIDEO     CLEAR     32  28  86 CALM      30.29S
GRANITE FALLS  CLEAR     33  29  86 NW3       30.30S
CANBY          CLEAR     33  30  87 NW3       30.30S
MARSHALL       CLEAR     32  29  88 NW9       30.29S WCI  24
REDWOOD FALLS  CLEAR     33  27  78 N5        30.27S WCI  29
OLIVIA         CLEAR     32  30  93 N3        30.27R
PIPESTONE      CLEAR    N/A N/A N/A N3        30.27R
WINDOM         CLEAR     34  18  51 N8        30.26R WCI  27
WORTHINGTON    CLEAR     32  29  88 N9        30.27R WCI  24
JACKSON        CLEAR     32  30  93 N7        30.25S WCI  26
TRACY          CLEAR     33  31  90 NW5       30.27S WCI  29
SLAYTON        CLEAR     33  29  85 NW7       30.27S WCI  27
$$
MNZ065>067-074>077-082>085-091>093-251300-
   South Central Minnesota

CITY           SKY/WX    TMP DP  RH WIND       PRES   REMARKS
MANKATO        FAIR      35  28  75 N9        30.25S WCI  28
NEW ULM        CLEAR     36  27  69 NE9       30.25S
ST JAMES       PTCLDY    34  30  86 W8        30.27R WCI  27
FAIRMONT       CLEAR     35  29  78 NW8       30.25R WCI  29
GLENCOE        FAIR      34  29  80 N5        30.26S WCI  30
OWATONNA       FAIR      36  27  69 N6        30.23R
WASECA         FAIR      34  30  86 N10       30.24R WCI  26
ALBERT LEA     FAIR      36  27  69 N6        30.21S
$$
MNZ078>079-086>088-094>096-251300-
   Southeast Minnesota

CITY           SKY/WX    TMP DP  RH WIND       PRES   REMARKS
ROCHESTER      FAIR      36  29  75 N10       30.20S
6HR MIN TEMP:  34; 6HR MAX TEMP:  42;

RED WING       FAIR      34  25  69 CALM      30.24R
STANTON        FAIR      35  29  78 N8        30.23S WCI  28
DODGE CENTER   FAIR      34  28  80 N8        30.21S WCI  27
WINONA         FAIR      37  32  81 N3        30.21R
AUSTIN         FAIR      34  28  80 CALM      30.20R
PRESTON        FAIR      35  32  87 N7        30.19S WCI  29
$$
ABBREVIATIONS USED IN REMARKS
   TC - TEMPERATURES IN CELSIUS
  WCI - WIND CHILL INDEX
   HX - HEAT INDEX
  VSB - VISIBILITY
$$




USA.gov is the U.S. government's official web portal to all federal, state and local government web resources and services.